When you browse on this site, cookies collect data to enhance your experience and personalize the content and advertising you see.
Visit our Privacy Policy to learn more. By continuing to use the site, you agree to this use of cookies and data.

Stündliche Wetter San Fernando de Apure

Heute, 12 Juli, Sonntag

Zeit Temperatur Niederschläge Wind Luftdruck Luftfeuchtigkeit
00:00 +25°C° 2 mm 1 m/S 755 mmHg 97%
01:00 +23°C° 2 mm 0 m/S 754 mmHg 98%
02:00 +23°C° 2 mm 0 m/S 754 mmHg 98%
03:00 +25°C° 2.5 mm 1 m/S 754 mmHg 98%
04:00 +25°C° 2.5 mm 1 m/S 754 mmHg 98%
05:00 +24°C° 2.5 mm 2 m/S 754 mmHg 98%
06:00 +24°C° 7.5 mm 2 m/S 755 mmHg 98%
07:00 +24°C° 7.5 mm 1 m/S 755 mmHg 99%
08:00 +24°C° 7.5 mm 1 m/S 756 mmHg 99%
09:00 +24°C° 7 mm 1 m/S 756 mmHg 99%
10:00 +24°C° 7 mm 1 m/S 756 mmHg 99%
11:00 +24°C° 7 mm 1 m/S 756 mmHg 99%
12:00 +25°C° 0.3 mm 1 m/S 756 mmHg 95%
13:00 +26°C° 0.3 mm 1 m/S 756 mmHg 92%
14:00 +27°C° 0.3 mm 1 m/S 755 mmHg 89%
15:00 +27°C° 0 mm 1 m/S 754 mmHg 88%
16:00 +26°C° 0 mm 0 m/S 753 mmHg 86%
17:00 +26°C° 0 mm 0 m/S 753 mmHg 85%
18:00 +25°C° 0 mm 0 m/S 753 mmHg 88%
19:00 +24°C° 0 mm 0 m/S 754 mmHg 91%
20:00 +23°C° 0 mm 0 m/S 754 mmHg 95%
21:00 +23°C° 0 mm 0 m/S 755 mmHg 95%
22:00 +22°C° 0 mm 0 m/S 755 mmHg 96%
23:00 +22°C° 0 mm 0 m/S 755 mmHg 96%

Morgen, 13 Juli, Montag

Zeit Temperatur Niederschläge Wind Luftdruck Luftfeuchtigkeit
00:00 +22°C° 0 mm 0 m/S 755 mmHg 96%
01:00 +22°C° 0 mm 0 m/S 755 mmHg 97%
02:00 +22°C° 0 mm 0 m/S 754 mmHg 97%
03:00 +22°C° 1.3 mm 0 m/S 754 mmHg 97%
04:00 +24°C° 1.3 mm 1 m/S 755 mmHg 98%
05:00 +24°C° 1.3 mm 1 m/S 755 mmHg 98%
06:00 +24°C° 1.6 mm 1 m/S 755 mmHg 98%
07:00 +24°C° 1.6 mm 1 m/S 756 mmHg 98%
08:00 +25°C° 1.6 mm 1 m/S 756 mmHg 98%
09:00 +26°C° 0.4 mm 1 m/S 756 mmHg 96%
10:00 +27°C° 0.4 mm 1 m/S 757 mmHg 94%
11:00 +28°C° 0.4 mm 1 m/S 757 mmHg 91%
12:00 +28°C° 0.6 mm 1 m/S 756 mmHg 88%
13:00 +29°C° 0.6 mm 1 m/S 755 mmHg 85%
14:00 +30°C° 0.6 mm 1 m/S 755 mmHg 82%
15:00 +29°C° 0.6 mm 1 m/S 754 mmHg 85%
16:00 +29°C° 0.6 mm 1 m/S 754 mmHg 87%
17:00 +28°C° 0.6 mm 1 m/S 753 mmHg 89%
18:00 +27°C° 1 mm 1 m/S 754 mmHg 91%
19:00 +27°C° 1 mm 2 m/S 754 mmHg 93%
20:00 +26°C° 1 mm 2 m/S 755 mmHg 95%
21:00 +25°C° 0.1 mm 2 m/S 755 mmHg 96%
22:00 +25°C° 0.1 mm 1 m/S 756 mmHg 96%
23:00 +25°C° 0.1 mm 1 m/S 756 mmHg 97%

übermorgen, 14 Juli, Dienstag

Zeit Temperatur Niederschläge Wind Luftdruck Luftfeuchtigkeit
00:00 +25°C° 0.6 mm 1 m/S 756 mmHg 97%
01:00 +25°C° 0.6 mm 1 m/S 755 mmHg 97%
02:00 +25°C° 0.6 mm 1 m/S 755 mmHg 97%
03:00 +25°C° 0.5 mm 2 m/S 755 mmHg 97%
04:00 +25°C° 0.5 mm 2 m/S 755 mmHg 97%
05:00 +24°C° 0.5 mm 2 m/S 755 mmHg 97%
06:00 +25°C° 0.1 mm 2 m/S 755 mmHg 97%
07:00 +25°C° 0.1 mm 2 m/S 755 mmHg 97%
08:00 +25°C° 0.1 mm 1 m/S 756 mmHg 97%
09:00 +25°C° 0 mm 1 m/S 756 mmHg 96%
10:00 +26°C° 0 mm 1 m/S 756 mmHg 96%
11:00 +24°C° 0 mm 0 m/S 756 mmHg 96%
12:00 +26°C° 0 mm 1 m/S 756 mmHg 95%
13:00 +27°C° 0 mm 1 m/S 755 mmHg 94%
14:00 +27°C° 0 mm 1 m/S 754 mmHg 94%
15:00 +28°C° 0 mm 1 m/S 754 mmHg 91%
16:00 +29°C° 0 mm 1 m/S 753 mmHg 89%
17:00 +29°C° 0 mm 1 m/S 753 mmHg 86%
18:00 +28°C° 0.1 mm 1 m/S 753 mmHg 90%
19:00 +27°C° 0.1 mm 1 m/S 754 mmHg 93%
20:00 +26°C° 0.1 mm 1 m/S 754 mmHg 97%
21:00 +26°C° 0 mm 1 m/S 755 mmHg 97%
22:00 +26°C° 0 mm 1 m/S 755 mmHg 97%
23:00 +25°C° 0 mm 1 m/S 755 mmHg 98%

15 Juli, Mittwoch

Zeit Temperatur Niederschläge Wind Luftdruck Luftfeuchtigkeit
00:00 +25°C° 0 mm 1 m/S 755 mmHg 98%
01:00 +25°C° 0 mm 1 m/S 754 mmHg 98%
02:00 +25°C° 0 mm 1 m/S 754 mmHg 98%
03:00 +25°C° 0 mm 1 m/S 754 mmHg 98%
04:00 +25°C° 0 mm 1 m/S 754 mmHg 98%
05:00 +25°C° 0 mm 1 m/S 754 mmHg 98%
06:00 +25°C° 0.1 mm 1 m/S 754 mmHg 97%
07:00 +26°C° 0.1 mm 1 m/S 755 mmHg 96%
08:00 +27°C° 0.1 mm 1 m/S 755 mmHg 94%
09:00 +28°C° 0.6 mm 2 m/S 755 mmHg 91%
10:00 +28°C° 0.6 mm 2 m/S 755 mmHg 88%
11:00 +29°C° 0.6 mm 2 m/S 756 mmHg 86%
12:00 +30°C° 0.6 mm 2 m/S 755 mmHg 83%
13:00 +31°C° 0.6 mm 2 m/S 754 mmHg 80%
14:00 +31°C° 0.6 mm 2 m/S 753 mmHg 78%
15:00 +31°C° 0.5 mm 2 m/S 753 mmHg 79%
16:00 +31°C° 0.5 mm 2 m/S 753 mmHg 80%
17:00 +31°C° 0.5 mm 1 m/S 752 mmHg 81%
18:00 +29°C° 1.2 mm 1 m/S 753 mmHg 85%
19:00 +28°C° 1.2 mm 1 m/S 753 mmHg 89%
20:00 +26°C° 1.2 mm 1 m/S 753 mmHg 93%
21:00 +26°C° 0.1 mm 1 m/S 754 mmHg 93%
22:00 +26°C° 0.1 mm 1 m/S 754 mmHg 93%
23:00 +25°C° 0.1 mm 1 m/S 754 mmHg 94%

16 Juli, Donnerstag

Zeit Temperatur Niederschläge Wind Luftdruck Luftfeuchtigkeit
00:00 +25°C° 0.2 mm 1 m/S 754 mmHg 94%
01:00 +23°C° 0.2 mm 0 m/S 754 mmHg 94%
02:00 +23°C° 0.2 mm 0 m/S 753 mmHg 95%
03:00 +23°C° 0.8 mm 0 m/S 753 mmHg 95%
04:00 +22°C° 0.8 mm 0 m/S 754 mmHg 96%
05:00 +24°C° 0.8 mm 1 m/S 754 mmHg 96%
06:00 +25°C° 0.2 mm 1 m/S 754 mmHg 96%
07:00 +25°C° 0.2 mm 1 m/S 755 mmHg 96%
08:00 +26°C° 0.2 mm 2 m/S 755 mmHg 95%
09:00 +27°C° 1.3 mm 2 m/S 755 mmHg 93%
10:00 +28°C° 1.3 mm 2 m/S 755 mmHg 90%
11:00 +29°C° 1.3 mm 2 m/S 755 mmHg 87%
12:00 +30°C° 1.4 mm 2 m/S 755 mmHg 85%
13:00 +30°C° 1.4 mm 2 m/S 754 mmHg 84%
14:00 +31°C° 1.4 mm 2 m/S 753 mmHg 82%
15:00 +30°C° 1.8 mm 2 m/S 753 mmHg 84%
16:00 +30°C° 1.8 mm 1 m/S 752 mmHg 87%
17:00 +30°C° 1.8 mm 1 m/S 752 mmHg 90%
18:00 +29°C° 0.3 mm 1 m/S 753 mmHg 90%
19:00 +28°C° 0.3 mm 1 m/S 753 mmHg 91%
20:00 +26°C° 0.3 mm 1 m/S 754 mmHg 92%
21:00 +26°C° 0.1 mm 1 m/S 754 mmHg 92%
22:00 +26°C° 0.1 mm 1 m/S 754 mmHg 92%
23:00 +26°C° 0.1 mm 1 m/S 755 mmHg 91%

17 Juli, Freitag

Zeit Temperatur Niederschläge Wind Luftdruck Luftfeuchtigkeit
00:00 +24°C° 1.5 mm 0 m/S 754 mmHg 92%
01:00 +23°C° 1.5 mm 0 m/S 754 mmHg 93%
02:00 +23°C° 1.5 mm 0 m/S 754 mmHg 94%
03:00 +23°C° 1.4 mm 0 m/S 754 mmHg 95%
04:00 +23°C° 1.4 mm 0 m/S 754 mmHg 95%
05:00 +25°C° 1.4 mm 1 m/S 754 mmHg 96%
06:00 +25°C° 1.8 mm 1 m/S 755 mmHg 96%
07:00 +25°C° 1.8 mm 1 m/S 755 mmHg 96%
08:00 +25°C° 1.8 mm 1 m/S 756 mmHg 96%
09:00 +26°C° 1.5 mm 1 m/S 756 mmHg 95%
10:00 +27°C° 1.5 mm 1 m/S 756 mmHg 93%
11:00 +28°C° 1.5 mm 1 m/S 756 mmHg 91%
12:00 +29°C° 1.9 mm 2 m/S 755 mmHg 89%
13:00 +29°C° 1.9 mm 2 m/S 754 mmHg 86%
14:00 +30°C° 1.9 mm 2 m/S 753 mmHg 84%
15:00 +30°C° 1 mm 1 m/S 753 mmHg 85%
16:00 +30°C° 1 mm 1 m/S 752 mmHg 86%
17:00 +30°C° 1 mm 1 m/S 752 mmHg 87%
18:00 +29°C° 1.2 mm 1 m/S 753 mmHg 89%
19:00 +27°C° 1.2 mm 1 m/S 753 mmHg 91%
20:00 +24°C° 1.2 mm 0 m/S 754 mmHg 93%
21:00 +26°C° 0.1 mm 1 m/S 754 mmHg 93%
22:00 +26°C° 0.1 mm 1 m/S 754 mmHg 94%
23:00 +26°C° 0.1 mm 1 m/S 755 mmHg 94%
Mehr zeigen